カタログに戻る

COSMOS 397 DEB

運用中LEO
NORAD 5013·DEBRIS·🇷🇺 Russia

打ち上げ Feb 25, 1971 から Baikonur Cosmodrome

Loading…

次のパス (今後24時間)

TLE

最新Source: Space-Track

元期: Sep 14, 2026, 06:58 UTC

1 05013U 71015G   26257.29055620  .00001516  00000-0  61819-3 0  9995
2 05013  65.8103 219.9040 0834974  57.5889 310.3152 13.18464395616288

AllMySatでCOSMOS 397 DEBをリアルタイム追跡

Download on the App Store